Hourly Data Report for October 18, 2017

All times are specified in Local Standard Time (LST). Add 1 hour to adjust for Daylight Saving Time where and when it is observed.

PANGNIRTUNG
NUNAVUT

66°08'36.300" N
65°42'40.500" W
22.60 m
2403049
71826
WXP

Download Data

Hourly Data (October 2017)
Hourly Data Report for October 18, 2017
Temp Definition
°C
Dew Point Temp Definition
°C
Rel Hum Definition
%
Wind Dir Definition
10's deg

Wind Spd Definition
km/h
Visibility Definition
km
Stn Press Definition
kPa
Hmdx Definition


Wind Chill Definition


Weather Definition


TIME
00:00 -4.3 -8.8 71 24 3   99.72   -6 LegendNANA
01:00 -4.3 -8.1 75 5 2   99.74   -5 LegendNANA
02:00 -4.0 -7.3 78 23 6   99.80   -7 LegendNANA
03:00 -4.3 -7.4 79 0 1   99.84   -5 LegendNANA
04:00 -4.1 -7.7 76 24 3   99.89   -5 LegendNANA
05:00 -4.3 -7.4 79 20 1   99.94   -5 LegendNANA
06:00 -4.3 -7.5 79 0 1   99.97   -5 LegendNANA
07:00 -4.2 -7.4 78 14 5   100.01   -6 LegendNANA
08:00 -4.1 -7.3 79 17 2   100.04   -5 LegendNANA
09:00 -3.9 -7.3 78 13 5   100.06   -6 LegendNANA
10:00 -3.5 -7.5 74   0   100.08     LegendNANA
11:00 -3.3 -7.3 74 30 1   100.10   -4 LegendNANA
12:00 -3.5 -7.2 76 22 4   100.12   -5 LegendNANA
13:00 -3.2 -7.3 73 23 1   100.16   -4 LegendNANA
14:00 -3.6 -6.5 80   0   100.20     LegendNANA
15:00 -3.7 -6.7 79 0 1   100.24   -4 LegendNANA
16:00 -4.0 -7.6 76 24 10   100.25   -8 LegendNANA
17:00 -4.1 -8.7 70 22 3   100.29   -5 LegendNANA
18:00 -4.2 -8.4 72 22 7   100.31   -7 LegendNANA
19:00 -4.5 -8.3 74 22 4   100.34   -6 LegendNANA
20:00 -5.2 -9.0 75 20 2   100.35   -6 LegendNANA
21:00 -5.5 -8.8 77 22 3   100.38   -7 LegendNANA
22:00 -5.9 -9.1 78 0 1   100.39   -6 LegendNANA
23:00 -6.1 -9.2 79 27 2   100.42   -7 LegendNANA

Notes on Data Quality.

Legend

  • E = Estimated
  • M = Missing
  • NA = Not Available
  • ‡ = Partner data that is not subject to review by the National Climate Archives
Date modified: